User: anonymous   Login
Location: �mondeville
(49.4591°N, 1.3431°W)
Time: 02:21:14
(UTC+00:00)
Language:

Cosmos 1709 Rocket - Orbit

View from above orbital plane
View from above orbital plane
View from above satellite
View from above satellite

Ground track
Ground track

The orbit data is extracted from the following two-line orbital elements,

1 16369U 85116B   19345.68643080  .00000085  00000-0  70285-4 0  9992
2 16369  82.9389  33.2933 0037415 137.4538 339.9759 13.76843622706853
Epoch (UTC): 11 December 2019 16:28:27
Eccentricity: 0.0037415
inclination: 82.9389°
perigee height: 947 km
apogee height: 1002 km
right ascension of ascending node: 33.2933°
argument of perigee: 137.4538°
revolutions per day: 13.76843622
mean anomaly at epoch: 339.9759°
orbit number at epoch: 70685

The dashed part of the orbit path shows where the satellite is in the earth's shadow,  

DLR